Location: Campbell Hill
(37.9301°N, 89.5490°W)
Time: 10:33:07
(UTC+00:00)

ERS-1 - Pass Details

Date: 07 November 2025
Orbit: 737 x 784 km, 98.8° (Epoch: 07 December)

Event Time Altitude Azimuth Distance (km) Brightness Sun altitude
Rises 23:32:59 0° 160° (SSE) 3,257 7.7 -8.4°
Reaches altitude 10° 23:35:18 10° 158° (SSE) 2,333 6.9 -8.8°
Maximum altitude 23:40:26 74° 74° (ENE) 816 4.5 -9.8°
Drops below altitude 10° 23:45:36 10° 351° (N) 2,340 7.0 -10.8°
Sets 23:47:55 0° 349° (N) 3,267 7.8 -11.3°
